This demonstration page uses our WeatherBlox Daily Observations layout. Learn more.

Left ArrowRight Arrow

38.83388, -104.82136

Hourly Observations for May 30, 2022

Temp ( °F °C ) Dew Point ( °F °C ) Humidity (%) Winds ( mph kmh ) Pressure ( in mb ) Visibility ( mi km ) Precip ( " mm )
12:58 am 00:58 Cloudy 55 12.6 29 -1.7 37 37 NNE 3 6 29.42 996 10 16 0.00 0.00
2:58 am 02:58 Cloudy 53 11.8 32 -0.1 44 44 WNW 7 11 29.43 997 10 16 0.00 0.00
7:58 am 07:58 undefined N/A N/A N/A undefined N/A N/A N/A 0.00 0.00
8:14 am 08:14 undefined 52 11 16 -9 24 24 S 16 26 29.27 991 10 16 0.00 0.00
9:58 am 09:58 undefined 56 13.4 17 -8.5 21 21 E 13 20 29.33 993 10 16 0.00 0.00
10:01 am 10:01 undefined 55 13 16 -9 21 21 SE 14 22 29.33 993 10 16 0.00 0.00
10:43 am 10:43 Cloudy 54 12 16 -9 22 22 NW 15 24 29.30 992 10 16 0.00 0.00
10:58 am 10:58 Mostly Cloudy 53 11.9 18 -8 24 24 NE 7 11 29.29 992 10 16 0.00 0.00
11:58 am 11:58 Partly Cloudy 59 14.9 14 -10 17 17 N 10 17 29.41 996 10 16 0.00 0.00
12:58 pm 12:58 Sunny 61 16.2 17 -8.2 18 18 ESE 9 15 29.44 997 10 16 0.00 0.00
1:48 pm 13:48 Mostly Sunny 61 16 16 -9 17 17 SE 13 20 29.52 1000 10 16 0.00 0.00
1:53 pm 13:53 Mostly Sunny 61 16 16 -9 17 17 ESE 13 20 29.51 999 10 16 0.00 0.00
1:58 pm 13:58 Mostly Sunny 61 15.9 16 -9.1 17 17 ESE 8 13 29.51 999 10 16 0.00 0.00
2:00 pm 14:00 Mostly Sunny 61 16 14 -10 16 16 S 13 20 29.51 999 10 16 0.00 0.00
2:58 pm 14:58 Sunny 62 16.8 14 -10 15 15 E 5 7 29.46 998 10 16 0.00 0.00
3:58 pm 15:58 Sunny 62 16.7 9 -12.9 12 12 ENE 5 7 29.56 1001 10 16 0.00 0.00
4:27 pm 16:27 Mostly Sunny 63 17 10 -12 13 13 E 17 28 29.56 1001 10 16 0.00 0.00
4:58 pm 16:58 Sunny 63 17.2 11 -11.5 13 13 E 7 11 29.57 1001 10 16 0.00 0.00
5:58 pm 17:58 Cloudy 59 15.2 13 -10.5 16 16 S 9 15 29.53 1000 10 16 0.00 0.00
6:58 pm 18:58 Cloudy 59 15 13 -10.6 16 16 Calm 29.58 1002 10 16 0.00 0.00
7:58 pm 19:58 Partly Cloudy 58 14.2 16 -9.1 19 19 Calm 29.49 999 10 16 0.00 0.00
8:58 pm 20:58 undefined N/A N/A N/A undefined N/A N/A N/A 0.00 0.00
9:58 pm 21:58 undefined 54 12.1 18 -7.9 24 24 WNW 8 13 29.49 999 10 16 0.00 0.00
10:58 pm 22:58 undefined 54 12.1 15 -9.6 21 21 NNW 12 19 29.52 1000 10 16 0.00 0.00
11:05 pm 23:05 Clear 54 12 14 -10 21 21 NNW 12 19 29.51 999 10 16 0.00 0.00
11:58 pm 23:58 Mostly Cloudy 55 12.7 11 -11.8 17 17 N 8 13 29.49 999 10 16 0.00 0.00

Powered by AerisWeather